Weather reports worldwide

Advertisment
Greifswald, Germany (10184): temperature & dewpoint: 12.01.2018 06:00:00 - 18.01.2018 06:00:00 (CET)Greifswald, Germany (10184): temperature 5cm & temperature -5cm: 12.01.2018 06:00:00 - 18.01.2018 06:00:00 (CET)Greifswald, Germany (10184): temperature -20cm & temperature -100cm: 12.01.2018 06:00:00 - 18.01.2018 06:00:00 (CET)Greifswald, Germany (10184): wind speed & gusts: 12.01.2018 06:00:00 - 18.01.2018 06:00:00 (CET)Greifswald, Germany (10184): wind direction: 12.01.2018 06:00:00 - 18.01.2018 06:00:00 (CET)Greifswald, Germany (10184): reduced air pressure: 12.01.2018 06:00:00 - 18.01.2018 06:00:00 (CET)Greifswald, Germany (10184): visibility: 12.01.2018 06:00:00 - 18.01.2018 06:00:00 (CET)Greifswald, Germany (10184): sunshine duration: 12.01.2018 06:00:00 - 18.01.2018 06:00:00 (CET)Greifswald, Germany (10184): precipitation: 12.01.2018 06:00:00 - 18.01.2018 06:00:00 (CET)
Date & Time tt [°C] td [°C] tt 5cm [°C] tt -5cm [°C] tt -20cm [°C] tt -100cm [°C] ff [km/h] ff [kn] fx [km/h] fx [kn] dd ppp [hPa] vv [km] sd [min] rr [mm]
18.01.2018 06:00:00 2,2 -0,4 1,2 0,0 0,5 4,1 12 7 28 15 SW 997,2 40 0 0,0
18.01.2018 05:00:00 2,3 -0,1 1,3 0,0 0,5 4,1 16 9 33 18 WSW 998,0 30 0 0,0
18.01.2018 04:00:00 2,1 0,0 1,2 0,0 0,5 4,1 15 8 28 15 SW 998,1 30 0 0,1
18.01.2018 03:00:00 1,7 0,0 0,9 0,0 0,5 4,1 13 7 31 17 SW 998,3 16 0 0,3
18.01.2018 02:00:00 1,1 -0,1 0,3 0,0 0,5 4,1 13 7 35 19 SW 998,4 3,0 0 0,0
18.01.2018 01:00:00 1,3 -0,7 0,3 0,0 0,5 4,1 15 8 40 22 SW 998,1 30 0 0,0
18.01.2018 00:00:00 1,7 -0,6 0,8 0,0 0,5 4,1 20 11 33 18 WSW 998,0 30 0 0,0
17.01.2018 23:00:00 1,3 -0,7 -0,1 0,0 0,5 4,1 17 9 29 16 WSW 997,6 25 0 0,0
17.01.2018 22:00:00 1,4 -0,5 0,2 0,0 0,5 4,1 15 8 28 15 WSW 997,0 25 0 0,2
17.01.2018 21:00:00 1,4 -1,1 0,3 0,0 0,5 4,1 16 9 34 18 WSW 996,4 35 0 0,0
17.01.2018 20:00:00 1,7 -1,1 0,4 0,0 0,5 4,2 17 9 31 17 WSW 995,7 45 0 0,1
17.01.2018 19:00:00 2,1 -1,1 1,4 0,0 0,5 4,2 17 9 36 19 WSW 995,0 50 0 0,0
17.01.2018 18:00:00 2,1 -0,5 1,3 -0,1 0,5 4,2 13 7 24 13 WSW 994,4 17 0 0,0
17.01.2018 17:00:00 2,2 -0,3 1,6 -0,1 0,5 4,2 13 7 26 14 WSW 993,9 37 0 0,0
17.01.2018 16:00:00 2,2 -0,1 1,7 -0,1 0,5 4,2 13 7 27 15 WSW 992,9 25 0 0,0
17.01.2018 15:00:00 2,1 0,0 1,7 -0,1 0,5 4,2 13 7 23 13 WSW 992,4 18 0 0,0
17.01.2018 14:00:00 2,0 0,0 1,6 -0,1 0,5 4,2 11 6 26 14 WSW 991,5 15 0 0,0
17.01.2018 13:00:00 2,2 -0,1 2,0 -0,1 0,5 4,2 16 8 25 14 WSW 991,1 15 0 0,0
17.01.2018 12:00:00 2,0 -0,2 1,7 -0,1 0,5 4,2 12 7 27 15 SW 990,7 14 0 0,0
17.01.2018 11:00:00 1,9 -0,1 1,5 -0,1 0,5 4,2 12 6 20 11 SW 990,3 14 0 0,0
17.01.2018 10:00:00 2,0 -0,7 1,5 -0,1 0,5 4,2 10 5 18 10 SW 989,8 21 0 0,0
17.01.2018 09:00:00 1,9 -0,8 1,3 -0,1 0,5 4,2 10 5 19 10 SW 989,4 26 0 0,0
17.01.2018 08:00:00 1,9 -1,0 1,3 -0,1 0,5 4,2 11 6 22 12 SW 988,6 28 0 0,0
17.01.2018 07:00:00 1,9 -0,8 1,2 -0,1 0,5 4,2 11 6 21 11 SW 988,4 24 0 0,0
17.01.2018 06:00:00 1,8 -0,7 1,2 -0,1 0,5 4,2 9 5 18 10 SW 988,2 22 0 0,0
17.01.2018 05:00:00 1,8 -0,6 1,1 -0,1 0,5 4,2 10 5 19 11 SW 988,1 23 0 0,0
17.01.2018 04:00:00 1,8 -0,9 1,2 -0,1 0,5 4,2 12 6 22 12 WSW 988,1 28 0 0,0
17.01.2018 03:00:00 1,9 -0,7 1,3 -0,1 0,5 4,2 14 8 27 15 WSW 988,2 30 0 0,0
17.01.2018 02:00:00 1,9 -0,6 1,3 -0,1 0,5 4,2 15 8 27 15 WSW 988,2 30 0 0,0
17.01.2018 01:00:00 1,8 -0,5 1,3 -0,1 0,5 4,2 14 7 25 14 WSW 988,1 30 0 0,0
17.01.2018 00:00:00 1,6 -0,4 0,3 -0,1 0,5 4,2 14 8 29 15 WSW 987,9 25 0 0,0
16.01.2018 23:00:00 1,9 -0,1 1,4 -0,1 0,5 4,2 14 8 35 19 WSW 987,7 25 0 0,0
16.01.2018 22:00:00 1,8 0,0 1,2 -0,1 0,5 4,2 15 8 29 16 W 987,7 30 0 0,0
16.01.2018 21:00:00 1,7 0,1 1,2 -0,1 0,5 4,2 15 8 30 16 WSW 987,3 35 0 0,0
16.01.2018 20:00:00 2,7 0,6 1,6 -0,1 0,5 4,3 11 6 21 11 WSW 987,1 25 0 0,0
16.01.2018 19:00:00 3,1 0,9 2,3 -0,1 0,5 4,3 11 6 20 11 SW 986,9 30 0 0,0
16.01.2018 18:00:00 3,1 1,0 2,2 -0,1 0,5 4,3 9 5 20 11 SSW 986,7 45 0 0,0
16.01.2018 17:00:00 3,1 1,3 2,2 -0,1 0,5 4,3 12 6 26 14 SW 986,9 45 0 0,0
16.01.2018 16:00:00 3,3 1,5 2,5 -0,1 0,5 4,3 11 6 21 12 SSW 986,6 40 0 0,0
16.01.2018 15:00:00 3,3 1,7 2,6 -0,1 0,5 4,3 9 5 17 9 SSW 986,8 35 0 0,0
16.01.2018 14:00:00 3,1 1,9 2,4 -0,1 0,5 4,3 6 3 20 11 S 986,8 20 0 0,1
16.01.2018 13:00:00 3,3 1,8 2,9 -0,1 0,5 4,3 9 5 21 11 S 987,3 20 0 0,0
16.01.2018 12:00:00 3,1 1,7 3,3 -0,1 0,5 4,3 10 5 22 12 S 987,8 13 2 0,0
16.01.2018 11:00:00 2,7 1,6 2,7 -0,1 0,5 4,3 11 6 25 14 S 988,3 12 1 0,0
16.01.2018 10:00:00 2,1 1,2 1,6 -0,1 0,5 4,3 9 5 24 13 S 988,5 13 0 0,0
16.01.2018 09:00:00 1,7 0,9 1,0 -0,1 0,5 4,3 15 8 27 15 S 988,4 15 0 0,0
16.01.2018 08:00:00 1,1 0,3 0,3 -0,1 0,5 4,3 11 6 31 17 S 988,2 20 0 0,0
16.01.2018 07:00:00 1,0 0,2 0,0 -0,2 0,5 4,3 16 9 39 21 S 988,6 20 0 0,1
16.01.2018 06:00:00 0,5 -0,1 -0,1 -0,2 0,5 4,3 17 9 42 23 S 988,8 3,0 0 1,2
16.01.2018 05:00:00 0,2 -0,2 -0,1 -0,2 0,5 4,3 25 13 47 26 S 989,5 1,0 0 1,7
16.01.2018 04:00:00 0,3 -1,2 0,1 -0,2 0,5 4,3 21 11 48 26 SSE 990,4 7 0 0,1
16.01.2018 03:00:00 0,1 -1,7 0,0 -0,2 0,5 4,3 22 12 45 24 SSE 991,8 3,6 0 0,0
16.01.2018 02:00:00 0,2 -2,8 0,0 -0,3 0,5 4,3 23 12 46 25 SSE 993,4 4,0 0 0,0
16.01.2018 01:00:00 0,7 -3,7 0,5 -0,3 0,5 4,3 23 12 44 24 SSE 994,8 10 0 0,0
16.01.2018 00:00:00 0,5 -3,8 0,2 -0,3 0,5 4,3 22 12 49 26 SSE 996,7 15 0 0,0
15.01.2018 23:00:00 0,3 -3,6 0,0 -0,4 0,5 4,3 25 13 51 27 SSE 998,2 13 0 0,0
15.01.2018 22:00:00 0,3 -3,7 -0,3 -0,3 0,5 4,3 24 13 49 26 SSE 999,8 15 0 0,0
15.01.2018 21:00:00 0,7 -3,7 0,1 -0,3 0,5 4,3 21 11 54 29 SSE 1001,4 16 0 0,0
15.01.2018 20:00:00 1,1 -3,6 0,8 -0,3 0,5 4,3 27 15 48 26 SSE 1003,0 17 0 0,0
15.01.2018 19:00:00 0,9 -3,6 0,4 -0,4 0,5 4,4 25 13 47 26 SSE 1004,4 18 0 0,0
15.01.2018 18:00:00 0,9 -3,5 0,0 -0,3 0,5 4,4 24 13 46 25 SSE 1006,1 16 0 0,0
15.01.2018 17:00:00 0,6 -3,7 -0,3 -0,3 0,5 4,4 21 11 46 25 SSE 1007,7 13 0 0,0
15.01.2018 16:00:00 0,5 -3,8 0,3 -0,2 0,6 4,4 21 12 45 25 SSE 1008,8 11 0 0,0
15.01.2018 15:00:00 0,6 -4,0 0,4 -0,2 0,6 4,4 26 14 42 23 SSE 1010,5 11 42 0,0
15.01.2018 14:00:00 0,3 -4,3 -0,1 -0,3 0,6 4,4 20 11 41 22 SSE 1011,8 11 53 0,0
15.01.2018 13:00:00 -0,2 -4,7 0,1 -0,3 0,6 4,4 18 10 39 21 SSE 1013,6 10 60 0,0
15.01.2018 12:00:00 -1,0 -5,0 -0,5 -0,4 0,6 4,4 24 13 46 25 SSE 1015,3 10 60 0,0
15.01.2018 11:00:00 -1,9 -5,4 -1,5 -0,5 0,6 4,4 18 10 36 19 SSE 1017,1 8 45 0,0
15.01.2018 10:00:00 -2,5 -5,7 -2,2 -0,5 0,6 4,4 17 9 37 20 SE 1018,2 8 0 0,0
15.01.2018 09:00:00 -3,0 -6,1 -2,8 -0,6 0,6 4,4 16 9 37 20 SSE 1019,4 8 0 0,0
15.01.2018 08:00:00 -3,2 -6,2 -3,1 -0,6 0,6 4,4 18 10 36 20 SSE 1020,5 8 0 0,0
15.01.2018 07:00:00 -3,3 -6,2 -3,2 -0,7 0,6 4,4 15 8 34 18 SSE 1021,2 8 0 0,0
15.01.2018 06:00:00 -3,3 -6,1 -3,6 -1,0 0,6 4,4 16 9 36 20 SSE 1021,9 8 0 0,0
15.01.2018 05:00:00 -3,4 -6,2 -4,4 -1,1 0,6 4,4 15 8 32 17 SSE 1022,8 9 0 0,0
15.01.2018 04:00:00 -3,2 -6,2 -4,3 -1,0 0,6 4,4 14 8 30 16 SSE 1023,9 8 0 0,0
15.01.2018 03:00:00 -3,2 -6,1 -4,1 -1,0 0,6 4,4 15 8 27 15 SSE 1024,8 8 0 0,0
15.01.2018 02:00:00 -3,2 -5,9 -4,5 -0,9 0,6 4,4 11 6 24 13 SSE 1025,7 9 0 0,0
15.01.2018 01:00:00 -3,1 -6,0 -4,5 -0,8 0,6 4,4 13 7 27 15 SSE 1026,7 10 0 0,0
15.01.2018 00:00:00 -2,8 -6,0 -4,0 -0,7 0,6 4,4 13 7 23 13 SSE 1027,0 10 0 0,0
14.01.2018 23:00:00 -2,8 -6,1 -4,1 -0,6 0,7 4,4 11 6 22 12 SSE 1027,7 10 0 0,0
14.01.2018 22:00:00 -2,4 -6,2 -3,7 -0,5 0,7 4,4 11 6 28 15 SSE 1028,2 10 0 0,0
14.01.2018 21:00:00 -2,4 -6,6 -2,9 -0,3 0,7 4,4 9 5 32 18 SSE 1028,5 12 0 0,0
14.01.2018 20:00:00 -2,5 -6,7 -2,9 -0,3 0,7 4,5 14 8 30 16 SSE 1028,9 13 0 0,0
14.01.2018 19:00:00 -2,6 -6,9 -3,2 -0,2 0,7 4,5 10 5 27 15 SE 1029,3 15 0 0,0
14.01.2018 18:00:00 -2,6 -7,3 -2,9 -0,1 0,7 4,5 11 6 27 14 SE 1029,6 16 0 0,0
14.01.2018 17:00:00 -2,7 -7,6 -3,1 0,0 0,7 4,5 14 8 28 15 SSE 1029,9 17 0 0,0
14.01.2018 16:00:00 -2,7 -7,9 -2,8 0,0 0,7 4,5 15 8 29 16 SE 1030,4 16 0 0,0
14.01.2018 15:00:00 -2,4 -7,6 -2,0 0,0 0,7 4,5 14 8 26 14 SE 1030,5 17 0 0,0
14.01.2018 14:00:00 -1,9 -6,9 -1,5 0,0 0,7 4,5 16 9 29 16 ESE 1030,7 16 0 0,0
14.01.2018 13:00:00 -1,9 -7,1 -1,4 0,0 0,7 4,5 17 9 29 16 SE 1031,3 17 0 0,0
14.01.2018 12:00:00 -1,4 -6,7 -1,2 0,0 0,7 4,5 20 11 32 17 SE 1031,7 14 51 0,0
14.01.2018 11:00:00 -1,6 -7,0 -1,4 0,0 0,7 4,5 19 10 29 16 SE 1032,3 14 60 0,0
14.01.2018 10:00:00 -1,8 -6,8 -1,8 0,0 0,7 4,5 16 8 29 16 SE 1032,2 15 40 0,0
14.01.2018 09:00:00 -1,3 -6,4 -1,7 0,0 0,7 4,5 12 6 27 14 SE 1032,0 17 0 0,0
14.01.2018 08:00:00 -1,1 -6,0 -1,3 0,0 0,7 4,5 12 7 21 11 SE 1032,0 11 0 0,0
14.01.2018 07:00:00 -0,8 -5,9 -1,1 0,0 0,7 4,5 12 7 21 11 ESE 1032,1 7 0 0,0
14.01.2018 06:00:00 -0,7 -5,8 -1,0 0,0 0,7 4,5 13 7 24 13 ESE 1032,0 13 0 0,0
14.01.2018 05:00:00 -0,6 -6,0 -0,8 0,0 0,7 4,5 16 9 32 18 SE 1032,2 17 0 0,0
14.01.2018 04:00:00 -0,5 -6,1 -0,8 0,0 0,7 4,5 11 6 27 15 SE 1032,4 18 0 0,0
14.01.2018 03:00:00 -0,5 -6,3 -0,7 0,0 0,7 4,6 16 9 32 17 SE 1032,7 19 0 0,0
14.01.2018 02:00:00 -0,5 -6,3 -0,8 0,0 0,7 4,6 14 8 31 17 SE 1032,9 19 0 0,0
14.01.2018 01:00:00 -0,5 -6,0 -0,8 0,0 0,7 4,6 10 5 22 12 SE 1033,0 21 0 0,0
14.01.2018 00:00:00 -0,5 -6,0 -0,9 0,0 0,6 4,6 16 9 32 17 SE 1033,5 22 0 0,0
13.01.2018 23:00:00 -0,4 -5,9 -0,7 0,0 0,6 4,6 13 7 35 19 SE 1033,6 20 0 0,0
13.01.2018 22:00:00 -0,4 -6,0 -0,7 0,0 0,6 4,6 20 11 36 19 SE 1033,7 20 0 0,0
13.01.2018 21:00:00 -0,4 -5,3 -0,7 0,0 0,6 4,6 16 9 34 18 SE 1034,0 21 0 0,0
13.01.2018 20:00:00 -0,3 -5,4 -0,6 0,0 0,6 4,6 14 8 28 15 ESE 1034,0 24 0 0,0
13.01.2018 19:00:00 -0,4 -5,6 -0,8 0,0 0,6 4,6 12 6 26 14 ESE 1034,0 20 0 0,0
13.01.2018 18:00:00 -0,8 -6,0 -1,1 0,0 0,6 4,6 14 7 25 13 ESE 1034,3 23 0 0,0
13.01.2018 17:00:00 -1,0 -6,4 -1,2 0,0 0,6 4,6 13 7 32 18 SE 1034,3 20 0 0,0
13.01.2018 16:00:00 -1,2 -6,3 -1,3 0,0 0,6 4,6 20 11 32 17 ESE 1034,2 10 0 0,0
13.01.2018 15:00:00 -1,0 -5,6 -1,0 0,0 0,6 4,6 21 11 34 18 ESE 1034,2 12 0 0,0
13.01.2018 14:00:00 -0,8 -5,3 -1,1 0,0 0,6 4,6 16 9 31 17 SE 1034,3 18 21 0,0
13.01.2018 13:00:00 -0,7 -4,6 -0,2 0,0 0,6 4,6 19 10 35 19 SE 1034,9 25 19 0,0
13.01.2018 12:00:00 -0,3 -4,4 0,2 0,0 0,6 4,7 15 8 33 18 SSE 1034,9 20 40 0,0
13.01.2018 11:00:00 -0,2 -3,6 0,3 0,0 0,6 4,7 19 10 33 18 ESE 1035,0 11 6 0,0
13.01.2018 10:00:00 -0,3 -3,1 -0,2 0,0 0,6 4,7 16 9 33 18 SE 1034,6 7 0 0,0
13.01.2018 09:00:00 -0,4 -2,9 -0,5 0,0 0,6 4,7 14 8 29 16 SE 1034,3 6 0 0,0
13.01.2018 08:00:00 -0,4 -2,6 -0,6 0,0 0,6 4,7 12 7 29 16 SE 1034,0 3,8 0 0,0
13.01.2018 07:00:00 -0,4 -2,5 -0,5 0,0 0,6 4,7 15 8 28 15 ESE 1034,1 3,7 0 0,0
13.01.2018 06:00:00 -0,4 -2,5 -0,5 0,0 0,6 4,7 13 7 24 13 ESE 1034,0 3,4 0 0,0
13.01.2018 05:00:00 -0,3 -2,6 -0,4 0,0 0,6 4,7 14 8 29 16 SE 1034,1 3,3 0 0,0
13.01.2018 04:00:00 -0,1 -2,2 -0,4 0,0 0,6 4,7 15 8 27 14 ESE 1034,3 3,8 0 0,0
13.01.2018 03:00:00 -0,1 -2,1 -0,4 0,0 0,6 4,7 14 7 23 12 ESE 1034,1 3,9 0 0,0
13.01.2018 02:00:00 -0,1 -1,7 -0,4 0,0 0,6 4,7 14 7 24 13 ESE 1033,9 3,6 0 0,0
13.01.2018 01:00:00 0,1 -1,5 -0,2 0,0 0,6 4,7 16 9 24 13 ESE 1033,8 4,3 0 0,0
13.01.2018 00:00:00 0,3 -1,0 -0,1 0,0 0,6 4,7 15 8 24 13 ESE 1033,8 4,5 0 0,0
12.01.2018 23:00:00 0,2 -0,5 -0,1 0,0 0,6 4,7 15 8 22 12 ESE 1033,6 3,2 0 0,1
12.01.2018 22:00:00 0,4 -0,5 0,0 0,0 0,6 4,8 11 6 17 9 ESE 1033,6 3,5 0 0,1
12.01.2018 21:00:00 0,6 -0,5 0,2 0,0 0,6 4,8 11 6 22 12 ESE 1033,3 4,6 0 0,0
12.01.2018 20:00:00 1,0 -1,0 0,6 0,0 0,6 4,8 17 9 28 15 ESE 1032,9 7 0 0,0
12.01.2018 19:00:00 1,3 -0,8 0,9 0,0 0,6 4,8 14 7 24 13 ESE 1032,5 10 0 0,0
12.01.2018 18:00:00 1,4 -0,5 0,7 0,0 0,6 4,8 17 9 24 13 E 1032,3 10 0 0,0
12.01.2018 17:00:00 1,5 -0,3 1,0 0,0 0,6 4,8 15 8 21 11 E 1032,0 11 0 0,0
12.01.2018 16:00:00 1,6 -0,1 1,1 0,0 0,6 4,8 14 8 22 12 E 1031,7 12 0 0,0
12.01.2018 15:00:00 1,7 -0,2 1,3 0,0 0,6 4,8 13 7 22 12 E 1031,5 14 0 0,0
12.01.2018 14:00:00 1,8 -0,4 1,6 0,0 0,6 4,8 16 8 22 12 E 1031,2 15 0 0,0
12.01.2018 13:00:00 2,0 -0,1 1,9 0,0 0,6 4,8 16 9 24 13 E 1030,9 15 0 0,0
12.01.2018 12:00:00 1,9 -0,1 1,6 0,0 0,6 4,8 14 7 18 10 E 1030,9 14 0 0,0
12.01.2018 11:00:00 1,5 -0,2 1,0 0,0 0,6 4,8 9 5 16 9 E 1030,8 14 0 0,0
12.01.2018 10:00:00 1,0 -0,7 0,5 0,0 0,6 4,9 11 6 18 10 ESE 1030,2 11 0 0,0
12.01.2018 09:00:00 0,6 -0,3 0,2 0,0 0,6 4,9 7 4 18 10 E 1029,7 9 0 0,0
12.01.2018 08:00:00 0,6 -0,3 0,2 0,0 0,6 4,9 13 7 25 13 ESE 1028,9 10 0 0,0
12.01.2018 07:00:00 0,6 0,0 0,4 0,0 0,7 4,9 20 11 29 16 E 1028,3 2,9 0 0,0
12.01.2018 06:00:00 0,9 0,2 0,7 0,0 0,7 4,9 21 11 28 15 E 1027,9 3,8 0 0,0

tt = temperature
td = dewpoint
tt 5cm = temperature 5cm
tt -5cm = temperature -5cm
tt -20cm = temperature -20cm
tt -100cm = temperature -100cm
ff = wind speed
fx = gusts
dd = wind direction
ppp = reduced air pressure
vv = visibility
sd = sunshine duration
rr = precipitation

Next stations